Wind_Speed
21 20 20 19 18 17 16 15 16 16 17 18 18 18 17 17 17 17 18 18 19 19 18 19 20 21 23 25 26 26 26 26 24 24 21 17 18 18 17 17 17 17 17 16 15 12 10 8 7 5 4 3 2 2 2 3 4 5 6 6 6 6 3 9 12 13 17 16 13 13 12 13 14 14 14 14 13 13 13 12 10 10 11 12 12 15 15 13
22 21 21 20 20 19 17 16 16 17 18 18 19 19 19 19 19 19 19 20 21 21 21 21 21 22 24 25 26 27 27 27 27 25 21 19 19 19 19 19 19 18 18 17 15 12 10 9 8 6 6 5 3 3 3 3 4 4 5 5 4 5 1 6 11 16 20 18 15 14 13 13 14 14 13 14 14 13 13 12 11 10 12 13 13 14 15 14
24 23 23 22 21 21 20 18 17 17 18 19 20 21 21 21 21 21 21 21 22 23 23 23 23 23 25 26 27 28 28 28 28 26 22 20 20 21 21 20 19 19 17 16 15 13 12 11 9 8 7 6 4 4 4 4 3 3 4 3 4 3 1 5 12 19 21 18 17 15 14 12 11 13 13 14 15 15 14 13 13 12 13 14 13 14 15 15
27 26 25 24 23 22 21 20 19 19 19 19 21 22 23 23 23 23 23 23 24 25 25 26 25 25 26 27 29 29 29 30 30 27 24 22 22 22 22 20 20 19 16 16 15 15 14 12 11 9 8 7 5 4 5 5 3 4 4 4 5 4 2 7 15 20 20 18 17 16 14 12 11 12 13 15 15 15 15 14 14 14 15 15 14 14 15 15
29 28 27 26 25 23 22 22 21 21 20 21 21 23 24 25 25 25 25 25 25 26 27 28 27 27 28 28 30 30 31 32 29 29 27 25 25 24 23 21 20 19 17 16 16 16 16 14 12 11 10 9 7 6 6 4 3 4 3 5 6 4 4 11 19 21 21 19 16 16 15 12 11 10 12 14 14 15 15 14 15 15 16 16 15 14 15 14
31 30 29 28 26 25 24 23 22 22 22 22 23 24 25 27 27 27 27 27 28 28 29 30 30 30 30 30 32 32 35 32 27 30 30 27 27 26 23 22 21 20 18 17 16 17 16 15 13 12 11 10 8 7 6 3 3 4 3 5 6 5 5 14 23 23 22 19 16 15 14 12 11 10 11 13 13 14 15 14 15 15 15 14 14 14 15 14
32 31 30 29 28 26 25 24 24 23 23 24 25 26 27 29 29 30 30 29 30 30 31 31 32 32 32 33 33 34 37 32 28 31 31 30 30 27 25 23 23 22 19 18 17 17 17 15 14 14 12 10 9 7 5 3 4 4 3 4 5 6 5 17 25 24 22 19 16 14 13 12 12 11 11 13 13 13 14 14 15 15 15 14 14 14 15 15
33 32 31 30 28 27 26 26 26 25 25 26 27 28 30 31 32 32 32 32 32 32 33 33 34 34 34 35 35 36 38 34 32 33 33 34 33 29 27 25 25 23 21 20 19 19 18 16 15 15 13 11 10 8 6 5 4 3 4 4 4 6 5 20 25 23 22 19 16 14 13 12 12 12 12 13 13 13 13 14 15 15 15 15 14 13 14 15
33 32 31 31 29 28 27 27 27 27 27 28 29 31 32 33 34 34 34 34 34 34 35 34 36 36 37 37 37 39 39 35 36 36 35 36 35 32 30 28 27 26 23 22 21 20 19 17 16 16 14 12 10 9 8 7 4 3 5 4 2 4 6 23 25 23 22 18 14 13 12 12 12 12 13 13 14 14 13 15 16 15 15 14 14 14 14 14
32 32 31 31 31 29 28 28 29 29 29 30 31 32 34 35 36 36 36 35 35 36 36 37 37 37 39 39 39 43 40 36 38 39 38 38 36 35 33 31 30 28 26 25 23 23 21 19 17 16 15 13 11 10 9 7 4 3 5 4 2 4 7 20 23 21 19 15 13 13 12 11 11 12 13 14 15 14 14 15 15 15 14 14 13 13 14 14
32 32 32 32 31 30 30 30 30 30 30 31 32 34 35 36 38 38 37 36 36 37 37 38 38 39 40 40 44 45 39 38 39 39 40 40 38 38 36 34 32 30 28 27 26 26 24 21 19 18 17 14 12 11 10 8 5 5 7 6 3 4 7 12 15 17 17 16 14 14 12 11 11 11 12 14 15 16 16 16 15 15 14 13 13 13 13 14
32 32 32 32 31 31 30 30 30 30 30 31 32 33 35 36 37 38 38 36 36 36 37 38 39 40 40 43 47 44 38 39 39 39 41 41 40 40 39 38 36 33 31 30 29 28 26 23 21 21 18 15 14 12 11 10 8 7 8 6 4 5 6 8 9 12 17 18 16 16 14 11 11 11 12 14 15 16 17 17 16 15 14 14 13 13 13 13
33 33 32 32 31 31 30 30 29 29 29 29 30 31 33 35 36 36 36 36 35 35 36 37 38 39 41 44 45 42 41 42 40 40 41 40 41 41 40 40 38 36 34 32 32 30 28 25 24 23 20 17 15 14 13 12 11 10 10 8 7 7 8 8 7 10 16 19 17 18 16 13 12 12 12 13 14 16 16 17 17 15 15 14 13 12 12 14
33 33 32 31 31 30 30 29 28 27 26 26 26 27 29 31 33 34 34 34 33 33 34 36 37 39 41 42 42 42 43 43 41 41 41 40 40 40 40 40 39 39 36 35 33 31 30 28 25 23 21 18 17 16 15 13 13 14 12 10 8 8 9 8 8 10 14 18 17 18 17 15 14 13 13 14 15 16 16 17 17 16 16 15 13 12 13 14
34 33 32 30 29 29 29 28 26 24 23 21 22 23 25 27 29 30 31 31 31 31 32 33 35 37 39 41 41 42 43 43 42 42 41 40 39 39 39 39 39 39 38 36 34 33 33 30 26 24 23 20 19 19 17 16 15 15 13 10 9 9 9 9 10 11 13 16 16 18 19 16 14 13 13 14 14 16 17 17 18 17 16 15 14 13 13 14
33 32 30 29 28 28 27 25 23 21 19 18 18 19 20 22 24 26 27 28 29 29 29 31 33 35 37 39 40 41 42 43 43 42 42 41 39 39 38 38 38 37 38 37 36 37 36 33 30 28 25 22 22 21 19 19 18 17 15 12 10 10 10 9 9 9 12 14 13 15 19 17 15 15 13 13 14 16 16 17 18 18 18 17 15 14 14 15
33 31 29 27 27 26 24 22 20 18 16 15 15 16 17 18 19 21 23 24 25 26 27 28 30 32 34 36 38 40 42 42 42 42 42 41 39 38 37 37 37 36 37 37 38 39 38 36 33 29 26 25 25 24 22 21 20 19 18 15 13 13 13 11 9 8 10 11 10 11 16 18 19 18 15 14 14 15 16 17 18 19 19 18 16 15 15 15
31 29 27 26 25 23 21 19 17 16 15 14 13 13 14 15 16 16 18 20 21 23 24 26 27 30 33 35 37 38 39 40 40 41 41 41 40 38 37 37 36 35 35 36 37 39 39 37 34 31 29 28 27 25 24 23 22 22 19 17 16 13 13 13 10 10 11 10 9 9 13 18 20 20 18 16 15 16 17 17 18 19 20 19 17 16 16 15
29 26 25 24 23 21 19 17 16 16 14 13 12 12 13 13 13 14 15 16 18 20 22 24 26 29 30 31 33 35 36 38 39 40 40 40 39 38 37 36 36 35 34 35 36 38 38 36 35 35 32 30 28 26 26 26 26 26 22 18 18 13 10 14 13 13 12 11 10 9 10 14 19 21 21 18 16 17 18 18 18 19 20 20 19 17 17 16
27 24 23 22 21 20 19 18 17 16 14 12 12 12 12 12 12 13 14 14 15 17 19 22 24 26 26 27 30 33 35 37 38 39 39 39 39 38 37 36 36 35 34 35 36 37 36 36 36 34 31 29 28 28 29 30 28 27 24 20 21 17 12 13 14 13 13 12 11 9 9 11 15 23 25 21 19 18 18 18 17 18 19 19 19 18 17 16
25 22 21 20 19 18 17 17 16 15 13 12 11 11 10 11 10 11 13 14 15 16 17 20 22 24 25 26 28 30 33 36 37 38 37 38 38 37 37 36 35 34 34 35 36 37 36 36 35 31 29 28 29 31 32 30 27 27 25 21 20 19 16 14 14 15 16 14 11 8 9 9 12 22 30 26 22 19 17 18 17 17 19 20 20 19 18 17
23 21 19 18 17 16 16 15 14 13 11 10 10 9 8 8 9 9 10 12 14 16 17 19 21 22 24 26 27 29 31 33 35 35 36 37 37 37 37 37 35 34 34 36 36 37 36 35 33 30 30 31 32 33 30 28 28 27 25 23 21 19 19 15 11 15 19 16 12 9 9 9 9 18 32 29 23 21 18 18 18 18 19 20 19 19 19 18
22 20 18 17 15 15 15 14 13 12 10 9 9 8 7 7 8 8 8 10 12 14 17 19 20 22 24 25 26 27 29 32 33 35 35 35 36 37 37 36 35 35 35 36 36 35 34 32 31 31 33 34 31 29 27 27 28 26 24 25 23 21 20 17 11 14 19 16 13 12 11 9 6 12 27 28 25 23 20 19 19 19 19 19 19 19 19 19
22 19 17 16 15 15 14 14 14 12 11 9 8 8 7 7 9 9 8 9 11 13 16 18 20 22 23 24 24 25 28 31 32 34 34 35 36 36 35 35 35 35 36 36 35 34 33 31 30 32 35 33 29 27 27 28 28 25 24 26 25 22 21 19 13 12 17 17 14 13 13 11 8 9 18 26 27 24 21 20 19 19 19 19 20 20 20 20
21 18 17 16 15 15 15 15 14 13 12 10 9 7 6 7 7 9 8 8 10 11 13 16 19 21 22 22 23 25 27 29 32 34 35 36 35 34 34 35 35 36 36 34 33 33 32 32 32 33 34 31 29 30 29 28 25 19 23 26 24 24 24 23 19 13 14 16 14 14 14 12 12 11 13 21 29 28 23 22 20 18 19 20 20 20 20 20
20 17 16 16 16 16 15 15 14 14 13 11 9 7 6 5 5 7 7 6 8 10 12 14 17 19 21 22 22 23 23 26 31 32 33 35 35 36 37 37 36 37 35 33 34 33 30 34 36 34 32 31 30 31 29 29 23 13 21 26 24 26 25 24 24 18 14 14 14 16 16 14 12 11 11 15 25 31 26 23 22 19 19 19 19 19 20 20
19 17 16 16 16 16 16 15 15 14 13 11 9 5 3 2 2 4 4 2 6 9 11 13 16 18 19 20 21 22 21 24 27 29 32 33 34 35 34 34 35 35 36 35 33 31 34 40 39 35 32 31 32 29 28 31 24 14 19 25 28 31 26 23 25 21 17 15 14 15 17 18 14 10 11 13 20 29 28 25 23 21 20 19 19 19 19 19
18 16 16 17 16 16 16 16 15 15 14 13 10 6 3 4 5 6 6 2 5 9 9 11 14 15 17 19 21 23 24 24 24 27 30 32 34 33 32 34 35 36 37 35 30 31 41 43 36 35 33 31 33 30 29 32 27 22 25 25 28 32 28 25 24 21 20 18 15 14 15 19 18 13 12 12 17 24 28 28 25 22 21 20 20 20 19 19
17 16 16 16 16 16 15 15 15 15 14 14 12 8 9 10 9 7 4 2 6 7 8 10 12 14 16 17 20 22 23 23 24 27 29 31 33 33 33 34 35 37 37 34 27 23 37 41 34 34 33 32 34 32 33 33 30 30 33 29 27 29 27 25 24 23 22 19 17 16 14 17 18 15 14 13 14 19 25 28 25 24 23 21 21 20 19 18
17 15 15 15 15 15 14 14 14 13 14 14 12 10 13 11 9 7 2 3 3 4 7 9 11 12 13 14 17 19 21 25 27 28 30 32 32 32 34 34 35 38 34 34 30 22 32 40 38 36 35 35 34 33 36 35 35 37 33 26 24 25 25 24 24 25 23 20 17 16 15 18 19 14 12 13 13 16 21 25 25 25 24 23 23 22 20 19
16 14 14 14 15 14 14 13 13 12 13 13 11 11 12 9 9 6 2 2 0 1 4 7 9 10 10 10 13 16 20 24 25 26 28 30 31 32 35 34 35 36 32 33 36 36 39 40 36 36 36 37 36 35 37 36 39 40 30 24 23 21 24 26 24 25 24 21 19 17 15 17 20 16 11 12 14 16 18 20 21 24 25 24 24 23 21 20
15 13 13 14 14 14 13 13 13 13 13 13 12 11 10 8 8 6 2 2 2 0 2 4 6 8 8 7 8 11 16 19 21 22 23 25 29 31 32 31 30 31 29 31 35 40 42 35 31 35 36 37 38 37 35 34 38 37 28 26 26 21 22 23 22 23 23 20 18 20 16 12 16 18 14 12 12 15 16 15 16 18 22 25 26 25 23 21
14 12 12 12 13 13 13 13 13 14 13 13 12 11 10 6 5 5 3 2 2 3 3 4 5 7 8 6 5 9 12 15 17 18 20 23 24 25 28 30 31 29 24 25 31 35 37 34 32 35 37 37 36 35 31 28 33 34 29 29 28 24 22 22 22 22 20 18 18 20 18 14 15 17 16 15 13 15 16 14 14 14 17 23 27 26 25 23
13 11 11 11 12 12 12 13 14 14 14 14 11 9 8 6 4 4 3 1 4 3 3 5 6 8 9 6 6 9 9 12 15 17 20 20 21 22 26 32 36 33 22 15 20 26 28 29 32 34 36 36 34 34 32 30 33 34 32 31 29 26 23 21 22 21 20 20 21 21 19 17 18 17 17 16 14 15 16 13 13 13 14 20 27 29 26 25
13 10 9 9 10 10 11 12 14 15 14 13 10 7 5 4 3 2 1 2 4 2 3 5 6 6 5 5 9 10 9 11 13 17 18 17 21 21 21 28 33 31 24 15 15 19 16 16 24 31 34 35 33 34 35 35 34 33 34 34 30 27 26 23 22 21 21 22 22 21 20 21 21 18 17 16 12 14 16 14 12 10 10 14 23 27 26 25
12 9 8 8 8 9 10 11 13 15 13 10 8 5 3 2 1 0 2 3 3 4 5 4 6 6 3 6 7 9 10 10 11 15 15 13 18 18 14 20 26 28 26 18 16 18 13 11 23 31 34 38 36 34 38 37 28 26 34 38 33 27 26 24 21 21 21 21 21 20 20 22 22 19 20 21 17 14 16 16 14 11 9 11 17 22 23 24
12 9 7 7 6 7 8 9 11 14 13 11 8 5 4 2 1 2 2 2 2 7 8 2 1 6 5 6 5 7 9 10 11 15 14 12 17 19 16 18 25 33 33 24 17 14 13 14 23 28 31 36 36 34 37 38 30 24 26 32 36 33 29 26 23 23 23 21 20 18 18 20 20 18 19 20 20 18 18 18 17 15 13 12 15 18 21 23
11 8 6 5 4 5 6 7 9 11 10 11 9 7 7 5 2 0 2 3 4 6 5 1 4 6 5 2 5 6 7 9 12 13 14 13 16 21 20 18 23 32 35 32 23 15 16 16 20 26 29 33 35 36 37 38 38 33 23 23 34 36 32 32 28 23 21 20 19 19 18 18 18 18 19 19 18 19 19 19 19 19 16 14 15 17 19 21
11 8 6 4 4 3 3 4 7 8 7 8 9 8 8 7 5 2 0 2 4 4 1 3 5 6 7 4 7 7 8 10 11 11 14 13 13 20 21 19 20 24 30 34 29 20 20 20 13 20 23 28 34 37 37 37 39 40 34 32 38 36 32 34 33 26 21 18 17 18 18 17 18 18 19 19 18 18 20 20 19 19 17 15 17 18 18 18
10 9 6 4 3 2 1 2 4 6 6 6 7 8 8 8 6 3 2 0 3 3 4 6 6 6 6 5 5 7 10 12 11 10 14 12 10 17 20 22 23 23 27 32 32 27 24 21 13 11 16 27 35 36 36 37 37 41 42 37 34 35 35 33 31 31 27 21 17 16 16 18 20 19 16 18 19 18 19 21 19 19 18 16 18 19 19 19
10 8 6 4 3 2 1 0 2 4 5 5 6 7 8 9 8 5 3 1 1 2 4 6 6 5 5 5 5 6 8 9 11 11 12 11 10 14 18 22 25 25 26 26 28 30 27 22 17 11 12 21 29 33 35 35 31 35 39 36 33 34 37 35 32 30 28 26 21 15 16 20 21 18 15 17 20 19 17 20 21 19 15 14 17 17 16 18
10 8 6 5 3 3 3 2 0 1 3 4 4 6 7 8 9 7 4 2 1 1 4 6 5 5 6 7 5 5 8 8 9 11 9 8 13 14 15 19 22 25 24 19 19 27 30 26 22 16 10 12 16 22 29 31 31 33 35 37 36 33 34 36 34 29 25 25 23 19 20 22 20 17 16 17 19 19 18 19 22 21 14 11 14 15 14 16
10 9 7 5 4 4 5 3 2 2 1 2 2 4 6 7 8 7 5 3 1 1 2 5 6 5 7 9 4 3 9 9 7 10 8 8 14 15 12 15 19 21 20 17 18 26 29 29 30 25 16 10 11 18 29 37 40 38 33 34 37 35 34 34 31 30 26 21 22 23 24 22 18 16 17 17 18 18 19 19 21 22 16 10 12 13 13 16
10 9 7 5 5 6 6 5 4 4 3 1 1 2 4 6 7 7 5 3 1 1 2 4 7 6 7 10 7 6 9 9 8 9 9 8 12 13 12 13 15 18 20 21 22 24 26 30 34 31 22 15 13 18 28 37 41 39 31 29 34 34 30 27 28 32 30 23 20 22 24 25 22 17 16 18 19 20 20 20 20 21 17 12 12 14 14 15
11 9 7 6 6 7 7 7 6 5 5 3 1 1 3 4 5 6 6 4 1 2 2 3 6 6 6 8 9 8 9 8 7 10 10 9 10 12 13 14 15 17 19 22 23 23 26 30 34 34 29 22 17 19 23 28 37 42 34 23 24 30 31 27 24 26 29 31 27 21 24 31 31 24 19 19 22 23 23 22 21 20 18 15 14 15 15 15
10 10 9 7 6 7 8 8 8 7 7 5 4 1 1 2 3 5 5 4 1 1 2 3 5 6 6 7 8 10 11 10 9 10 12 11 11 13 15 15 16 16 17 20 22 23 26 28 32 36 35 30 26 24 22 20 25 34 34 27 25 32 38 36 28 22 24 32 33 26 26 31 32 29 26 24 25 26 26 25 23 21 19 17 17 17 16 15
9 9 9 8 7 7 8 9 9 9 8 7 6 4 2 0 2 3 4 4 3 1 2 3 4 4 5 6 8 9 11 13 12 12 13 13 12 13 14 13 13 15 17 18 20 24 25 27 29 33 35 34 31 27 24 20 17 18 24 29 32 35 38 39 39 31 22 24 27 27 28 28 27 28 29 28 29 29 29 28 26 24 22 20 19 20 19 16
10 10 10 8 7 8 9 9 10 9 9 8 8 6 4 2 1 1 2 3 3 2 1 2 3 4 4 5 7 8 9 12 14 13 13 12 11 11 12 13 12 12 14 16 19 23 25 26 28 28 31 33 28 24 23 21 19 19 21 27 33 35 35 40 42 36 28 26 27 28 30 29 28 29 29 29 30 31 31 30 29 28 26 23 21 22 22 21
10 11 10 9 8 9 9 9 9 9 9 9 9 8 6 4 3 2 1 1 2 2 1 1 3 5 5 6 6 7 8 10 11 12 12 12 12 12 13 14 14 13 13 16 20 22 23 26 27 25 28 27 22 23 25 21 21 25 27 30 33 31 32 37 37 34 37 39 35 32 32 31 31 33 32 31 30 31 32 32 31 31 30 28 25 22 21 21
10 10 10 9 9 9 9 9 9 10 10 10 10 9 8 6 5 4 2 2 1 1 1 1 2 5 7 8 8 8 9 9 9 10 10 11 14 15 15 14 13 13 15 18 20 21 23 26 25 25 26 21 16 18 23 20 20 25 29 33 34 32 32 36 37 37 41 43 38 36 36 33 31 33 33 31 31 32 33 34 33 33 32 31 29 25 22 21
10 10 9 8 8 9 9 9 10 10 10 11 10 9 8 8 7 5 4 3 2 2 1 1 1 4 6 8 10 10 11 11 11 10 10 12 15 16 16 16 14 14 15 16 17 19 23 25 24 24 25 20 15 16 18 18 17 21 26 30 33 35 33 34 38 40 40 40 38 38 40 38 35 34 32 30 31 32 34 36 35 34 33 32 31 28 26 24
11 10 9 8 8 9 9 9 10 11 11 10 9 9 9 8 8 7 6 5 3 3 3 2 2 3 4 5 7 9 11 12 12 11 11 13 16 16 17 17 17 16 15 14 14 17 22 25 23 24 25 22 19 19 21 20 18 19 26 28 31 35 33 33 39 41 38 38 37 38 42 41 36 33 31 29 30 32 35 38 38 37 35 34 32 31 30 28
Wind_Direction
338 335 331 327 323 316 309 300 293 288 282 277 273 270 267 262 254 247 241 236 231 225 223 221 220 216 211 207 207 208 208 208 207 208 203 201 209 208 206 207 208 208 204 203 200 197 197 197 197 193 196 193 192 239 261 290 307 323 334 352 345 311 272 179 191 199 186 177 168 165 167 166 161 162 165 160 156 150 146 146 151 156 154 152 145 136 130 128
338 335 331 327 322 317 311 302 293 285 281 277 272 268 265 261 257 250 243 237 233 229 224 222 221 219 215 211 209 209 209 208 207 207 199 197 208 208 207 207 208 210 207 205 201 197 198 197 199 198 202 198 201 236 253 279 301 322 328 345 336 311 259 191 203 187 179 177 170 169 174 173 165 164 168 164 158 153 151 149 150 156 156 149 144 138 131 128
337 334 331 326 322 317 312 306 297 286 279 274 271 267 263 260 256 252 246 239 234 230 227 223 221 219 218 215 212 211 210 210 207 204 197 196 205 207 207 207 209 210 209 207 201 199 199 199 201 201 206 203 206 234 251 267 292 308 303 318 316 305 271 213 196 175 172 177 173 171 176 177 170 166 169 170 165 160 158 154 152 157 156 148 146 144 135 131
336 333 330 326 321 317 312 307 301 291 281 272 268 265 263 259 255 251 247 242 236 232 228 225 222 219 219 217 215 213 212 212 208 203 198 197 204 207 206 207 209 209 208 207 203 202 200 201 203 203 207 205 205 226 245 255 285 303 307 320 305 295 257 192 180 176 177 179 178 175 176 179 177 171 172 175 170 166 162 157 155 156 156 152 154 152 140 135
334 331 328 325 321 317 311 306 300 293 284 274 267 262 260 257 254 249 246 243 238 233 229 226 223 220 219 218 218 215 215 214 208 203 199 199 205 206 204 204 208 208 206 206 204 205 203 201 201 202 207 209 210 217 235 257 306 315 329 320 295 284 240 187 179 184 184 181 181 178 178 180 177 172 173 177 173 168 164 161 160 159 162 159 159 158 145 139
332 330 327 324 320 315 309 303 296 290 283 276 268 261 257 254 252 249 245 241 238 235 230 227 223 221 219 219 219 217 218 215 208 207 203 202 207 206 204 203 206 206 206 207 204 205 205 201 200 202 207 212 214 219 234 250 278 288 327 319 297 297 253 192 185 188 186 182 182 181 180 177 173 165 169 178 176 170 163 164 166 162 167 166 163 161 149 143
331 329 326 323 319 314 308 301 294 287 280 274 267 261 256 252 249 247 245 240 237 234 232 228 223 221 219 219 219 218 221 215 208 210 206 206 209 205 204 204 206 205 205 208 205 206 204 199 201 204 208 212 213 219 227 228 261 298 337 331 310 309 248 195 190 189 183 182 183 183 180 175 169 159 165 178 178 172 162 166 171 164 170 171 167 167 155 149
330 328 325 321 317 312 306 300 294 287 279 272 266 260 255 251 248 245 243 240 236 233 231 228 224 221 219 219 218 219 222 215 210 212 208 210 211 206 205 207 209 207 207 209 207 208 204 199 202 206 210 212 215 219 218 227 255 308 321 321 321 330 217 192 191 188 184 181 182 181 177 175 169 158 163 175 173 171 165 168 171 167 172 174 172 173 161 155
330 327 324 320 316 311 306 300 294 287 280 272 266 260 255 251 247 244 241 239 236 232 229 227 224 221 219 219 218 220 222 216 214 214 210 212 212 208 207 209 212 211 211 211 209 210 207 202 204 208 213 211 212 216 217 229 234 242 282 293 318 12 178 191 190 185 185 180 177 177 175 175 172 164 166 173 170 168 170 170 169 167 172 175 176 176 166 162
330 327 323 319 316 312 307 301 295 289 281 273 266 260 255 251 247 245 241 238 235 232 228 225 223 221 219 218 218 221 220 216 216 215 214 213 213 212 211 211 213 214 215 213 211 213 211 207 207 211 215 211 208 212 217 227 228 231 264 269 255 66 144 186 188 183 183 179 177 178 178 180 179 174 172 175 171 168 170 169 166 167 171 175 179 181 173 166
330 327 323 319 316 313 309 305 298 291 283 275 268 261 256 251 248 245 242 239 235 232 228 225 222 220 219 218 220 221 218 216 217 216 217 216 214 214 214 214 214 216 217 216 215 214 213 209 209 213 215 212 209 212 218 224 225 239 255 255 224 124 136 176 188 189 184 179 183 183 183 186 182 181 180 177 173 170 170 168 169 169 171 175 180 185 177 168
331 327 323 320 318 315 313 308 302 295 287 279 270 263 257 253 249 246 244 240 236 233 230 226 222 220 218 218 220 220 217 217 216 216 219 218 216 216 216 216 216 217 218 218 218 217 216 213 212 215 215 213 212 215 221 224 222 227 242 243 210 184 181 183 194 198 187 183 185 181 185 190 180 182 185 180 176 176 172 167 170 171 171 175 180 183 178 169
331 327 323 321 318 317 316 312 307 300 292 284 275 267 259 255 251 248 245 243 239 234 231 228 224 221 219 219 220 219 216 217 215 216 218 218 218 217 218 218 218 218 219 220 220 219 220 218 216 217 217 214 215 218 222 226 225 222 227 226 212 209 215 205 199 198 189 189 190 185 189 194 184 184 189 184 178 178 175 171 171 172 173 176 180 182 178 172
332 328 324 321 319 319 318 315 311 304 298 289 280 271 262 257 253 251 247 244 241 237 233 230 227 223 221 221 220 218 217 217 215 215 217 217 218 218 218 219 219 219 219 221 221 221 223 222 220 221 222 218 218 221 223 224 226 227 229 226 216 216 228 222 209 209 198 192 195 195 195 194 192 192 192 189 182 178 178 176 175 174 175 176 177 179 178 175
333 328 323 320 319 319 319 317 314 310 305 295 285 275 266 260 255 253 249 245 243 239 235 231 229 226 223 221 219 218 217 216 215 215 216 216 217 218 217 218 219 219 218 220 221 222 224 225 224 225 223 221 221 223 224 225 226 231 234 232 222 213 221 222 209 213 209 200 199 202 201 197 199 199 195 194 189 185 184 180 179 179 178 178 176 174 177 177
333 327 323 320 319 320 320 319 317 316 311 303 293 282 273 265 259 255 251 247 242 239 236 232 230 227 225 222 220 219 217 216 215 215 216 216 216 216 217 217 218 218 217 217 219 221 222 222 222 224 225 224 224 226 226 228 229 229 229 232 231 215 210 212 209 208 207 204 201 201 203 203 205 204 199 199 197 194 191 185 182 181 180 181 178 173 177 179
333 328 324 321 320 321 321 321 320 320 317 312 302 291 282 274 266 260 254 249 243 238 235 232 230 228 226 223 220 219 217 216 215 215 216 215 215 215 216 217 217 217 216 216 217 219 221 221 220 220 223 225 227 229 229 232 234 233 233 235 240 236 220 209 204 204 203 204 204 200 201 206 209 207 204 203 204 201 196 191 187 184 183 182 179 177 180 182
334 329 325 322 322 322 322 320 319 318 315 312 305 296 287 278 271 264 257 251 244 238 233 230 228 227 225 222 220 219 217 216 215 215 216 215 215 214 214 215 216 216 216 216 216 218 219 220 219 216 217 220 224 228 231 233 236 236 235 230 233 241 229 215 204 200 202 201 205 199 197 208 212 211 208 206 206 204 200 197 193 189 185 182 181 181 182 184
335 330 327 325 324 324 322 319 316 314 309 304 301 293 284 274 266 258 252 247 241 236 231 228 226 226 226 223 221 219 217 216 215 215 215 215 215 214 214 214 215 215 214 216 216 218 219 219 218 216 215 215 218 223 227 229 230 233 234 225 225 235 226 220 217 209 208 205 203 196 190 205 216 216 211 208 207 206 203 200 197 194 188 183 183 184 183 184
337 334 332 330 329 327 324 319 315 311 305 300 297 292 281 270 259 250 244 238 234 232 229 227 225 224 224 222 221 218 216 215 214 214 214 214 214 214 213 213 214 214 213 215 216 218 219 218 219 216 214 214 216 220 222 223 226 233 236 228 228 236 229 226 231 221 215 214 211 205 197 203 221 220 210 205 207 207 203 200 199 197 191 185 185 186 183 184
341 339 338 336 335 333 330 326 321 315 306 296 294 293 283 268 257 247 240 233 226 224 223 224 222 221 219 218 217 216 216 215 213 213 212 213 213 213 213 212 213 213 213 215 216 218 217 218 219 215 213 212 214 221 220 219 225 230 232 230 231 235 227 229 241 229 221 222 217 216 220 228 242 223 207 202 204 205 203 199 197 196 192 189 188 188 183 182
346 345 345 344 342 341 340 337 333 329 316 297 287 286 276 262 253 244 239 234 226 219 217 217 217 217 216 214 214 212 213 213 212 211 211 211 211 212 212 211 211 211 212 215 216 218 218 218 218 214 213 210 212 220 218 217 226 227 226 230 235 238 229 227 238 225 217 222 221 221 230 247 266 220 201 198 200 202 202 197 196 194 193 194 191 189 184 183
352 351 350 350 350 349 346 341 339 336 328 310 291 279 271 261 249 239 236 233 228 221 216 213 212 212 212 212 211 210 211 211 210 210 209 209 210 211 210 210 210 210 211 214 216 219 220 220 218 216 215 211 213 220 217 218 225 227 225 226 231 238 231 225 229 218 214 220 223 222 224 235 259 208 196 198 201 203 203 197 196 195 192 192 192 191 186 185
356 354 353 354 354 350 345 342 340 337 331 319 302 287 278 270 251 235 231 228 225 222 217 213 210 210 210 210 208 209 209 208 207 208 207 207 209 209 209 209 209 210 211 212 214 218 220 219 218 220 218 212 212 215 214 217 220 226 227 220 223 232 227 223 223 214 215 221 220 219 220 224 230 208 202 208 208 206 204 198 198 198 196 192 190 191 189 187
357 355 354 356 354 350 348 346 345 343 338 327 315 301 288 284 252 227 226 225 221 221 219 214 211 208 206 205 206 208 209 208 206 206 205 205 206 205 206 207 207 209 211 211 213 216 219 217 215 218 216 210 212 212 210 213 211 226 234 223 223 230 224 222 225 224 224 225 224 222 219 219 225 222 222 222 213 207 203 200 201 201 200 199 194 191 191 191
358 355 355 357 354 354 353 352 352 350 346 339 330 315 302 293 240 214 223 226 220 218 217 214 211 208 203 202 204 204 208 211 206 205 206 205 204 204 205 205 205 208 208 208 212 213 216 217 215 216 212 208 212 213 211 208 201 219 242 232 228 228 224 223 227 233 235 228 227 229 222 217 224 223 228 230 212 203 199 199 202 203 203 201 198 193 192 193
357 355 357 358 357 358 359 359 360 358 357 354 347 335 322 301 205 187 181 209 233 219 214 214 210 207 203 200 199 196 200 208 206 205 206 204 205 206 207 205 206 208 207 207 210 212 217 218 215 214 212 209 212 212 212 207 195 203 233 231 227 228 229 228 226 229 236 231 227 231 225 218 226 228 225 224 207 199 197 197 200 204 203 198 197 197 195 194
356 355 358 359 1 3 4 7 8 8 10 12 15 22 48 89 107 121 126 136 252 221 209 213 210 208 204 199 199 196 197 199 201 204 204 204 204 202 204 206 206 208 208 206 205 213 222 221 215 215 214 212 212 211 213 206 196 205 219 220 221 224 227 226 223 226 233 235 231 231 226 220 227 235 232 223 209 204 202 199 201 204 203 198 197 200 199 196
355 356 359 0 3 5 9 13 15 17 20 25 33 55 84 90 92 95 105 231 240 213 205 210 208 207 203 199 200 201 201 199 199 202 201 203 205 202 204 206 206 209 207 202 197 216 230 223 216 217 215 215 214 212 215 206 199 214 220 218 220 222 222 224 225 225 227 232 234 235 232 227 227 230 238 235 220 213 204 199 202 205 203 199 198 202 204 200
355 358 0 2 5 8 12 16 20 26 30 36 43 71 86 78 68 58 19 258 232 208 202 205 204 203 201 200 202 202 206 206 202 201 200 201 203 205 209 208 207 210 206 201 199 214 228 219 213 214 211 214 213 213 218 207 204 218 219 218 225 225 223 224 224 224 226 229 233 239 239 232 227 225 235 238 222 210 204 202 205 206 203 198 198 202 204 203
355 359 0 2 7 10 16 20 26 35 43 49 55 75 82 64 45 36 311 239 29 209 201 208 204 190 183 195 206 204 209 211 205 202 203 202 202 204 209 209 210 211 204 203 209 218 222 216 213 213 212 214 210 210 216 208 211 221 216 214 223 224 227 227 222 224 228 228 228 234 234 223 219 221 233 240 228 214 207 208 212 213 210 202 198 201 203 204
356 358 0 4 9 14 20 25 32 41 49 59 60 59 62 59 51 33 347 53 33 18 156 209 203 183 183 195 207 208 212 211 204 202 202 202 205 208 209 208 211 212 208 208 215 223 226 221 217 216 215 216 212 213 216 210 216 223 216 215 218 217 225 227 224 226 226 222 222 229 234 229 222 223 231 238 228 216 210 210 214 220 222 211 200 200 201 202
355 357 1 5 11 18 25 30 39 45 50 60 59 47 42 47 59 49 47 81 237 231 159 181 197 185 180 176 198 201 200 203 201 201 202 201 204 209 211 209 206 203 207 216 218 225 231 226 220 219 219 218 215 216 219 215 221 224 217 217 218 215 219 221 222 225 223 221 229 236 241 250 243 232 235 241 230 214 207 208 214 223 232 221 205 200 200 200
354 357 1 6 15 22 28 35 44 48 51 56 51 43 43 39 53 49 27 121 176 181 158 175 182 173 159 156 211 209 189 196 199 198 205 200 194 203 211 212 208 199 193 208 217 227 237 231 225 224 221 220 215 213 214 213 218 221 217 217 218 216 215 216 220 223 227 231 240 247 247 250 248 237 237 246 241 220 206 203 212 221 236 226 207 199 199 200
353 356 1 7 18 26 31 38 46 51 53 53 44 36 42 47 78 86 340 133 129 121 159 168 149 146 169 199 214 209 191 198 203 199 203 199 193 204 211 210 212 204 192 191 202 215 230 236 236 231 223 221 215 212 214 213 214 219 218 216 217 217 213 212 219 222 226 230 234 240 240 241 244 239 237 245 244 228 217 212 217 225 235 224 207 202 202 203
352 355 358 6 19 29 35 38 47 53 52 46 42 34 37 56 68 225 189 153 126 116 118 117 100 108 232 250 218 207 197 194 201 193 191 197 201 208 209 205 209 204 197 194 195 203 201 217 235 228 221 220 213 209 216 212 209 218 221 217 215 218 216 215 224 224 222 228 231 233 235 237 242 243 246 250 246 239 232 225 224 228 233 224 214 211 208 207
350 354 355 1 16 32 39 39 45 54 51 47 52 36 23 43 303 271 202 188 150 122 109 61 93 147 203 257 242 216 198 189 193 187 183 193 202 205 205 208 210 206 202 194 189 201 194 209 238 230 219 221 214 209 216 212 207 212 220 223 221 221 220 219 223 222 220 226 230 233 239 239 238 238 241 243 241 238 236 233 231 229 227 226 224 220 215 213
348 351 351 353 5 31 43 42 45 49 44 43 50 35 19 20 7 294 205 209 168 133 106 322 244 174 152 211 233 205 193 193 186 189 199 201 205 210 211 217 218 212 207 200 197 204 180 189 245 244 226 221 214 211 214 213 211 209 207 217 219 220 226 226 222 217 218 228 232 235 242 242 238 237 236 233 232 234 233 235 237 233 229 229 229 226 223 220
345 344 345 344 348 18 40 43 44 43 34 30 34 30 24 18 9 12 305 205 161 146 163 197 199 180 148 173 222 205 201 193 171 189 213 204 216 228 220 223 226 214 207 205 206 205 180 176 233 254 234 223 216 214 214 214 215 214 212 214 211 211 221 229 229 224 218 225 233 234 238 242 240 238 238 235 235 236 235 235 236 235 237 237 230 227 227 226
341 337 339 335 327 341 20 39 43 47 51 41 29 24 21 18 10 6 15 225 173 174 203 178 162 171 164 169 201 198 202 191 166 193 214 195 218 243 229 226 232 219 209 210 210 209 197 185 201 236 234 223 218 215 214 215 218 220 221 223 217 213 216 221 227 229 226 228 231 228 231 238 241 240 239 237 237 237 238 238 233 228 234 234 225 226 226 223
335 332 334 325 311 294 271 344 41 49 57 49 34 26 18 16 13 8 14 350 212 190 209 190 160 170 183 177 180 182 194 190 173 190 207 194 211 244 237 228 231 225 213 210 215 218 213 200 198 216 244 234 223 219 215 213 219 224 223 223 221 219 220 220 222 226 228 232 232 232 241 242 242 243 236 229 230 229 233 240 236 230 234 233 229 233 233 227
330 329 330 317 297 267 254 249 62 47 51 49 39 32 21 17 17 14 14 357 287 174 197 205 194 190 184 174 174 177 182 190 183 180 191 205 211 226 232 225 226 226 215 204 215 222 217 210 207 208 231 243 225 218 216 211 214 221 221 222 221 220 222 224 225 227 231 235 233 235 247 246 240 240 232 222 226 227 228 236 238 235 237 233 235 243 245 241
327 326 324 310 286 261 255 247 216 205 116 68 50 37 28 21 20 21 20 7 327 191 176 187 189 193 192 185 182 191 192 194 189 178 182 215 218 219 222 218 220 220 211 204 215 219 213 212 213 206 201 215 213 213 215 212 214 216 216 220 221 218 221 225 226 227 227 232 236 237 243 245 240 239 236 227 225 225 226 231 235 237 240 232 229 236 241 243
325 322 314 301 282 261 255 255 238 218 209 174 65 38 32 22 21 28 28 17 5 203 187 180 181 187 208 207 201 200 202 202 202 197 199 217 223 223 222 221 220 214 206 206 214 215 207 207 211 207 196 196 212 223 221 218 218 216 214 219 219 215 219 227 232 230 224 222 232 239 247 250 245 238 233 226 222 222 224 227 231 237 243 241 230 229 235 240
324 319 308 294 279 263 256 258 250 232 227 222 213 28 26 16 17 28 33 31 24 206 196 190 195 199 213 216 210 208 209 214 221 218 219 220 221 224 226 226 226 219 212 211 212 211 207 206 209 210 206 205 214 226 227 222 221 220 216 216 219 217 214 217 225 229 227 224 220 222 238 247 247 241 231 224 219 218 220 222 226 232 238 241 234 230 235 241
321 314 307 297 284 270 261 256 247 237 231 230 227 221 32 9 3 20 31 35 39 205 197 188 195 206 213 213 214 217 215 213 218 222 224 225 225 226 227 229 231 225 217 215 212 209 209 209 210 212 212 213 216 221 221 218 222 226 222 212 216 220 214 211 212 214 225 228 220 218 228 236 241 240 231 224 218 216 219 220 221 226 231 235 234 231 232 240
317 308 304 299 285 268 260 255 248 240 233 233 233 223 200 298 339 6 23 29 48 116 197 194 183 194 209 207 210 221 222 218 218 222 223 224 228 229 226 228 234 229 221 219 216 211 211 211 213 214 216 218 221 221 218 212 208 217 221 218 223 226 219 216 216 213 220 227 221 226 233 231 235 236 228 223 219 214 216 219 219 222 226 230 233 232 230 234
311 303 297 293 281 267 261 256 250 245 239 235 232 222 210 219 274 318 359 23 39 65 173 192 182 185 193 198 209 222 225 222 223 225 225 225 227 230 230 225 221 220 221 222 220 213 209 212 213 213 217 222 224 222 219 218 212 206 210 218 226 229 226 224 223 221 226 226 217 222 231 231 235 234 227 224 222 215 214 217 219 220 223 227 230 233 234 237
306 301 295 291 281 271 265 258 251 246 241 236 229 222 219 218 228 257 282 338 35 41 33 204 202 206 201 200 210 220 222 227 231 229 227 227 224 226 235 231 219 214 216 220 223 217 210 212 212 210 215 221 224 225 223 224 223 219 219 222 225 227 228 227 225 224 229 230 225 223 228 231 233 235 231 226 222 217 214 215 219 220 221 224 226 229 234 238
302 299 297 293 285 276 267 256 251 248 243 238 233 227 225 226 225 229 244 254 262 42 13 283 226 225 221 216 219 225 226 231 240 239 236 238 233 229 233 231 220 216 217 218 222 219 213 214 213 210 212 214 217 227 228 225 224 225 226 227 227 228 229 227 224 225 228 230 228 227 231 232 231 235 238 231 224 220 216 215 219 220 219 220 222 226 230 234
301 299 297 293 287 279 269 254 250 251 249 245 240 234 231 230 229 228 230 244 251 239 260 317 261 239 237 234 233 236 235 235 240 242 241 244 242 238 237 234 223 221 225 223 218 216 213 214 215 213 213 213 208 210 217 220 223 227 228 227 226 226 227 227 227 227 228 229 228 228 231 233 231 234 240 235 226 224 220 217 219 222 222 221 221 224 228 233
299 297 294 288 280 274 269 258 248 247 252 253 245 237 235 231 229 231 232 236 244 239 233 247 260 256 255 255 252 248 244 241 240 240 240 242 244 242 239 238 231 227 230 229 221 216 213 212 214 213 212 215 213 206 210 215 214 223 229 228 226 225 224 226 227 226 227 228 227 228 230 230 230 235 241 237 228 225 221 218 220 224 227 227 225 226 230 233
Height
5882 5881 5880 5879 5879 5878 5878 5877 5876 5876 5876 5876 5875 5875 5875 5875 5875 5876 5877 5878 5878 5879 5880 5881 5881 5882 5883 5884 5885 5886 5887 5889 5890 5891 5893 5895 5895 5896 5897 5898 5898 5900 5901 5902 5904 5905 5906 5907 5907 5908 5908 5908 5908 5907 5907 5907 5906 5906 5906 5905 5905 5904 5903 5904 5906 5906 5907 5908 5909 5909 5910 5910 5911 5911 5912 5912 5913 5914 5915 5915 5916 5917 5918 5918 5919 5918 5918 5919
5881 5879 5878 5877 5876 5875 5875 5874 5874 5874 5873 5873 5873 5873 5873 5873 5873 5874 5874 5875 5876 5877 5878 5878 5879 5880 5881 5882 5883 5884 5885 5887 5888 5890 5892 5893 5894 5895 5896 5896 5897 5898 5900 5902 5903 5905 5905 5906 5907 5907 5907 5907 5907 5907 5907 5907 5907 5906 5906 5905 5905 5905 5904 5905 5905 5905 5907 5908 5910 5910 5910 5910 5910 5911 5912 5913 5914 5915 5915 5916 5917 5918 5919 5919 5920 5919 5919 5920
5878 5877 5876 5875 5873 5872 5872 5871 5871 5871 5870 5870 5870 5870 5870 5870 5871 5871 5872 5872 5873 5874 5875 5876 5877 5878 5879 5880 5881 5882 5883 5885 5886 5889 5891 5892 5892 5893 5894 5896 5896 5898 5899 5901 5903 5903 5904 5905 5906 5906 5907 5907 5907 5907 5907 5907 5907 5906 5905 5905 5905 5905 5905 5905 5905 5905 5906 5908 5910 5910 5910 5911 5911 5911 5912 5914 5914 5915 5916 5916 5917 5918 5919 5920 5920 5920 5920 5921
5876 5875 5873 5872 5871 5870 5869 5868 5868 5867 5867 5867 5867 5867 5867 5867 5868 5868 5869 5869 5870 5871 5872 5873 5874 5876 5877 5878 5879 5880 5882 5882 5884 5887 5889 5890 5890 5891 5893 5895 5896 5897 5899 5900 5901 5902 5903 5905 5905 5906 5906 5906 5906 5907 5907 5907 5907 5906 5906 5905 5905 5905 5905 5905 5906 5906 5906 5908 5909 5910 5911 5911 5912 5912 5913 5914 5915 5915 5916 5917 5918 5919 5920 5920 5921 5921 5921 5921
5873 5872 5871 5869 5868 5867 5866 5865 5864 5864 5863 5863 5863 5863 5863 5864 5864 5865 5865 5866 5867 5867 5869 5870 5872 5873 5874 5875 5876 5878 5879 5879 5882 5885 5887 5888 5889 5890 5892 5894 5895 5896 5897 5898 5900 5901 5903 5904 5904 5905 5905 5905 5906 5906 5906 5907 5907 5906 5906 5906 5905 5905 5905 5906 5907 5907 5907 5908 5909 5910 5911 5911 5912 5912 5913 5914 5915 5916 5917 5918 5919 5919 5920 5921 5922 5922 5922 5922
5870 5869 5868 5866 5865 5864 5863 5862 5861 5860 5859 5859 5859 5859 5859 5859 5860 5861 5861 5862 5863 5864 5865 5866 5868 5870 5871 5872 5873 5875 5875 5876 5881 5883 5884 5886 5886 5888 5891 5892 5893 5895 5896 5897 5899 5900 5902 5903 5903 5904 5904 5905 5905 5906 5906 5907 5907 5906 5906 5906 5905 5905 5904 5905 5906 5906 5907 5908 5910 5911 5911 5912 5912 5912 5913 5915 5916 5916 5918 5919 5920 5920 5921 5922 5922 5923 5923 5923
5867 5866 5864 5863 5862 5860 5859 5858 5857 5857 5856 5855 5855 5855 5855 5855 5856 5856 5857 5858 5858 5860 5861 5862 5865 5866 5868 5869 5870 5872 5871 5874 5879 5880 5882 5884 5884 5887 5889 5891 5892 5893 5895 5896 5898 5899 5901 5902 5902 5903 5903 5904 5905 5906 5906 5907 5907 5907 5907 5906 5904 5904 5903 5904 5904 5905 5907 5908 5910 5911 5912 5912 5912 5913 5913 5915 5916 5917 5918 5920 5920 5921 5922 5923 5923 5924 5923 5923
5865 5863 5861 5859 5858 5857 5855 5854 5853 5852 5852 5851 5850 5850 5850 5850 5851 5852 5852 5853 5854 5855 5856 5858 5860 5862 5864 5865 5867 5868 5867 5871 5876 5877 5879 5881 5882 5885 5888 5889 5890 5891 5893 5894 5896 5898 5900 5901 5901 5902 5903 5903 5905 5906 5906 5906 5907 5907 5908 5907 5905 5903 5902 5903 5904 5905 5907 5908 5910 5912 5913 5913 5913 5913 5914 5915 5916 5918 5919 5920 5921 5922 5923 5924 5924 5925 5924 5924
5862 5860 5858 5856 5854 5853 5851 5850 5849 5848 5847 5846 5846 5845 5845 5845 5846 5847 5847 5848 5849 5850 5852 5854 5855 5858 5860 5861 5863 5862 5863 5869 5872 5874 5876 5878 5880 5883 5885 5887 5888 5890 5891 5893 5895 5897 5899 5900 5900 5901 5902 5903 5904 5905 5906 5906 5907 5907 5907 5907 5906 5904 5902 5903 5905 5906 5908 5910 5912 5913 5913 5914 5914 5914 5915 5916 5917 5918 5919 5920 5921 5922 5923 5925 5925 5926 5926 5925
5859 5856 5854 5852 5850 5849 5847 5846 5844 5843 5842 5841 5840 5840 5840 5840 5840 5841 5842 5843 5844 5845 5847 5849 5850 5853 5854 5857 5858 5856 5860 5866 5868 5871 5873 5875 5878 5881 5882 5884 5886 5888 5889 5891 5893 5895 5897 5899 5900 5901 5901 5902 5904 5905 5906 5906 5907 5907 5906 5906 5907 5905 5904 5905 5906 5908 5910 5912 5914 5914 5914 5915 5915 5915 5915 5916 5917 5918 5919 5920 5921 5922 5924 5925 5926 5927 5927 5926
5855 5853 5850 5848 5846 5844 5843 5841 5839 5838 5836 5836 5835 5834 5834 5834 5835 5836 5837 5838 5839 5840 5842 5844 5846 5848 5850 5853 5852 5851 5858 5862 5864 5868 5869 5872 5875 5877 5879 5882 5884 5886 5888 5890 5891 5893 5895 5898 5899 5900 5901 5902 5904 5904 5905 5906 5907 5907 5906 5906 5907 5907 5907 5907 5908 5910 5912 5913 5914 5915 5915 5915 5916 5916 5916 5917 5917 5918 5919 5921 5922 5923 5924 5925 5926 5927 5927 5927
5852 5849 5846 5844 5842 5840 5838 5836 5834 5832 5831 5830 5829 5829 5829 5829 5830 5830 5831 5833 5834 5836 5837 5839 5841 5843 5845 5847 5845 5850 5857 5858 5861 5864 5865 5869 5872 5874 5877 5879 5881 5883 5886 5888 5889 5891 5894 5896 5898 5899 5900 5902 5903 5904 5904 5905 5907 5906 5905 5906 5907 5907 5907 5908 5909 5910 5911 5912 5913 5915 5914 5916 5916 5916 5917 5917 5918 5919 5920 5921 5922 5923 5924 5925 5927 5928 5928 5928
5848 5845 5842 5840 5838 5836 5834 5832 5829 5827 5826 5825 5824 5824 5824 5824 5825 5826 5827 5828 5830 5832 5833 5835 5837 5839 5840 5841 5843 5849 5852 5853 5857 5860 5862 5865 5868 5871 5874 5876 5879 5881 5883 5885 5887 5890 5892 5895 5897 5898 5899 5901 5903 5903 5904 5905 5906 5906 5906 5907 5908 5908 5907 5909 5910 5909 5910 5911 5914 5915 5915 5916 5916 5916 5917 5918 5918 5919 5920 5921 5922 5923 5924 5926 5927 5928 5929 5929
5844 5841 5839 5836 5834 5832 5830 5828 5825 5823 5822 5820 5819 5819 5819 5820 5820 5821 5823 5824 5826 5828 5829 5831 5833 5835 5836 5838 5842 5845 5847 5850 5854 5856 5858 5862 5865 5868 5871 5873 5876 5878 5881 5883 5886 5888 5890 5893 5896 5897 5899 5901 5902 5902 5903 5904 5905 5904 5905 5907 5907 5908 5908 5909 5911 5910 5910 5911 5913 5914 5914 5916 5917 5917 5918 5918 5918 5919 5920 5921 5922 5923 5925 5926 5927 5928 5929 5929
5841 5838 5835 5833 5831 5829 5826 5824 5822 5820 5818 5817 5816 5815 5815 5816 5816 5817 5819 5820 5822 5824 5825 5827 5829 5831 5832 5835 5838 5840 5844 5847 5850 5853 5856 5858 5862 5865 5868 5871 5873 5876 5879 5881 5884 5886 5888 5891 5895 5896 5898 5900 5901 5901 5903 5903 5903 5904 5905 5905 5906 5909 5908 5908 5910 5910 5910 5910 5912 5913 5914 5915 5916 5917 5918 5918 5919 5919 5920 5921 5922 5923 5925 5926 5927 5928 5929 5930
5838 5835 5832 5830 5828 5825 5823 5821 5819 5817 5815 5814 5813 5813 5813 5813 5813 5814 5815 5816 5818 5820 5821 5823 5825 5827 5829 5832 5835 5837 5840 5843 5846 5850 5852 5855 5858 5862 5865 5868 5870 5873 5876 5878 5881 5883 5885 5888 5892 5894 5896 5899 5900 5900 5902 5902 5903 5904 5905 5905 5905 5908 5908 5907 5908 5909 5909 5910 5911 5912 5914 5915 5915 5916 5917 5918 5919 5919 5920 5921 5922 5923 5924 5926 5927 5928 5929 5930
5835 5832 5829 5827 5825 5823 5820 5818 5816 5815 5813 5812 5811 5811 5810 5810 5811 5811 5812 5813 5815 5816 5818 5820 5822 5824 5826 5828 5831 5833 5836 5840 5844 5847 5849 5853 5856 5859 5863 5865 5868 5871 5873 5876 5878 5879 5882 5885 5889 5893 5895 5897 5898 5899 5901 5902 5903 5904 5904 5905 5905 5906 5907 5907 5908 5908 5909 5911 5911 5911 5913 5914 5914 5915 5916 5917 5919 5919 5920 5921 5922 5923 5923 5925 5926 5927 5929 5930
5832 5829 5826 5824 5822 5820 5818 5816 5814 5813 5812 5811 5810 5809 5809 5808 5809 5809 5809 5810 5812 5813 5815 5816 5819 5820 5822 5824 5827 5830 5834 5838 5841 5844 5847 5850 5853 5857 5860 5862 5866 5868 5871 5873 5875 5877 5879 5883 5887 5890 5891 5894 5896 5898 5900 5901 5902 5902 5903 5905 5905 5905 5905 5906 5907 5907 5909 5910 5910 5911 5912 5913 5913 5915 5915 5917 5918 5919 5920 5920 5921 5922 5923 5924 5926 5927 5928 5929
5830 5827 5824 5822 5820 5818 5816 5815 5813 5811 5810 5809 5808 5808 5807 5807 5807 5807 5807 5808 5809 5811 5812 5814 5815 5817 5819 5823 5825 5828 5832 5835 5838 5841 5844 5848 5851 5854 5857 5861 5863 5866 5869 5871 5873 5875 5877 5881 5884 5886 5889 5892 5894 5896 5898 5899 5900 5900 5901 5903 5903 5904 5905 5904 5905 5907 5908 5909 5909 5910 5911 5912 5912 5914 5915 5917 5918 5919 5919 5920 5921 5922 5923 5924 5926 5927 5928 5929
5828 5825 5823 5820 5818 5816 5815 5813 5811 5810 5809 5808 5807 5806 5806 5805 5805 5805 5805 5806 5807 5808 5810 5811 5813 5815 5818 5821 5823 5826 5828 5831 5835 5838 5842 5845 5849 5852 5855 5858 5861 5864 5867 5869 5871 5873 5876 5879 5881 5884 5888 5891 5893 5894 5894 5895 5897 5898 5900 5903 5903 5902 5904 5903 5903 5906 5908 5908 5908 5908 5909 5910 5911 5912 5914 5916 5917 5919 5919 5920 5921 5921 5922 5924 5925 5926 5927 5928
5826 5824 5821 5819 5817 5815 5813 5811 5810 5808 5807 5807 5806 5805 5804 5803 5803 5803 5804 5804 5805 5806 5808 5809 5811 5813 5816 5818 5820 5823 5826 5829 5832 5836 5840 5843 5846 5850 5853 5856 5859 5862 5865 5866 5868 5870 5873 5876 5879 5884 5887 5889 5891 5890 5890 5894 5896 5897 5899 5901 5902 5902 5903 5903 5903 5904 5907 5907 5907 5907 5908 5908 5909 5909 5911 5914 5916 5918 5919 5919 5920 5921 5922 5923 5924 5925 5926 5928
5825 5823 5820 5818 5816 5814 5812 5810 5809 5807 5806 5805 5804 5803 5803 5802 5802 5802 5803 5803 5804 5805 5806 5807 5809 5811 5813 5816 5818 5821 5824 5826 5830 5834 5837 5841 5844 5847 5850 5853 5857 5860 5862 5864 5866 5868 5871 5875 5878 5883 5884 5885 5886 5886 5889 5893 5894 5895 5898 5900 5900 5900 5902 5904 5904 5904 5905 5906 5905 5906 5906 5907 5907 5906 5908 5913 5915 5917 5918 5919 5920 5920 5922 5923 5924 5925 5926 5927
5825 5822 5820 5817 5815 5813 5811 5810 5808 5807 5805 5804 5803 5803 5802 5801 5801 5801 5802 5802 5803 5803 5804 5806 5807 5809 5811 5814 5816 5819 5821 5824 5828 5831 5835 5838 5841 5844 5848 5851 5854 5857 5860 5862 5865 5867 5871 5874 5878 5880 5880 5882 5884 5886 5889 5892 5893 5895 5897 5898 5898 5898 5900 5902 5903 5903 5903 5904 5904 5904 5905 5906 5906 5906 5908 5912 5914 5916 5917 5918 5919 5920 5921 5923 5924 5925 5926 5927
5824 5822 5819 5817 5815 5813 5811 5810 5808 5806 5804 5803 5802 5802 5801 5801 5801 5801 5801 5801 5802 5803 5803 5804 5806 5808 5810 5812 5815 5817 5819 5822 5825 5828 5832 5835 5838 5843 5847 5849 5852 5855 5857 5860 5863 5866 5869 5873 5876 5877 5877 5881 5884 5886 5888 5889 5892 5894 5894 5895 5896 5896 5897 5900 5901 5901 5902 5902 5903 5905 5905 5906 5907 5908 5910 5911 5913 5915 5916 5918 5919 5920 5921 5922 5923 5924 5925 5926
5824 5822 5819 5817 5814 5813 5811 5809 5807 5805 5804 5802 5802 5801 5801 5800 5800 5800 5801 5801 5802 5802 5803 5804 5805 5807 5809 5811 5814 5816 5818 5821 5823 5826 5829 5833 5836 5841 5843 5846 5850 5852 5855 5859 5862 5864 5867 5870 5873 5872 5874 5880 5882 5883 5885 5888 5891 5894 5893 5893 5895 5894 5895 5898 5899 5900 5902 5902 5903 5904 5905 5906 5907 5908 5909 5909 5911 5913 5915 5917 5918 5919 5920 5922 5922 5923 5925 5925
5824 5822 5819 5817 5814 5812 5811 5809 5807 5805 5803 5802 5801 5800 5800 5800 5800 5801 5801 5801 5802 5802 5803 5804 5805 5806 5808 5810 5812 5815 5819 5820 5822 5825 5828 5832 5835 5837 5840 5844 5847 5850 5854 5857 5859 5862 5865 5866 5867 5870 5873 5878 5880 5881 5884 5886 5890 5895 5894 5892 5893 5891 5893 5897 5898 5900 5902 5902 5902 5903 5904 5906 5907 5907 5907 5907 5908 5911 5914 5915 5917 5918 5920 5921 5923 5923 5924 5925
5824 5822 5819 5817 5814 5812 5811 5809 5807 5805 5803 5802 5801 5800 5800 5800 5800 5801 5802 5802 5802 5802 5803 5803 5805 5806 5808 5810 5812 5815 5817 5819 5822 5824 5827 5830 5833 5837 5840 5843 5846 5849 5851 5854 5858 5861 5860 5859 5864 5869 5872 5875 5878 5881 5883 5885 5888 5891 5891 5889 5889 5889 5892 5896 5898 5899 5900 5901 5902 5902 5903 5904 5905 5906 5906 5906 5907 5909 5912 5914 5916 5918 5919 5921 5922 5923 5924 5925
5824 5822 5819 5817 5815 5813 5811 5809 5807 5805 5804 5802 5801 5801 5801 5801 5801 5802 5802 5804 5803 5802 5803 5804 5805 5807 5808 5810 5812 5813 5815 5817 5820 5822 5825 5829 5831 5835 5839 5841 5844 5846 5849 5853 5858 5859 5855 5857 5864 5868 5871 5874 5876 5879 5880 5883 5886 5886 5885 5885 5886 5888 5890 5893 5897 5899 5899 5899 5901 5901 5902 5903 5904 5905 5905 5905 5906 5907 5910 5912 5914 5917 5919 5920 5921 5923 5924 5924
5824 5822 5820 5817 5815 5813 5811 5809 5808 5806 5804 5803 5803 5802 5802 5802 5803 5803 5804 5804 5804 5803 5804 5804 5805 5807 5808 5810 5812 5813 5816 5817 5818 5821 5824 5827 5830 5833 5836 5839 5842 5844 5848 5853 5856 5857 5853 5857 5863 5866 5869 5872 5874 5877 5877 5881 5884 5882 5881 5884 5885 5887 5889 5892 5895 5897 5898 5898 5900 5901 5901 5902 5903 5904 5904 5904 5906 5907 5909 5911 5913 5915 5917 5919 5921 5922 5923 5924
5824 5822 5820 5818 5815 5814 5812 5810 5809 5807 5805 5805 5804 5804 5804 5804 5804 5805 5806 5806 5804 5804 5805 5805 5806 5807 5809 5811 5812 5814 5816 5816 5818 5821 5823 5825 5829 5832 5834 5837 5840 5842 5847 5851 5852 5852 5850 5853 5859 5862 5866 5869 5872 5875 5875 5879 5880 5877 5880 5885 5886 5888 5889 5891 5893 5895 5897 5898 5899 5900 5901 5901 5902 5903 5903 5904 5906 5907 5908 5910 5912 5914 5915 5918 5919 5921 5923 5924
5824 5822 5820 5818 5816 5814 5813 5811 5810 5808 5807 5806 5806 5805 5806 5805 5805 5807 5807 5806 5805 5806 5805 5806 5807 5808 5810 5812 5813 5815 5815 5816 5818 5821 5823 5825 5828 5830 5833 5836 5839 5842 5847 5849 5848 5847 5848 5853 5857 5860 5863 5865 5869 5871 5872 5876 5876 5875 5881 5885 5886 5888 5889 5890 5893 5894 5896 5898 5899 5900 5900 5900 5900 5902 5903 5904 5905 5907 5908 5909 5911 5913 5914 5916 5918 5920 5922 5923
5824 5823 5820 5818 5816 5815 5813 5812 5810 5809 5808 5808 5807 5807 5807 5807 5808 5809 5808 5807 5808 5808 5807 5807 5808 5810 5812 5813 5814 5815 5816 5816 5819 5821 5823 5826 5828 5830 5833 5836 5839 5843 5847 5848 5847 5846 5849 5854 5856 5859 5861 5863 5867 5869 5871 5875 5875 5876 5882 5884 5885 5888 5889 5890 5893 5894 5895 5897 5899 5899 5898 5898 5899 5902 5903 5904 5906 5907 5908 5908 5910 5912 5913 5914 5916 5918 5920 5922
5824 5823 5821 5819 5817 5815 5814 5813 5811 5810 5809 5809 5808 5808 5808 5809 5810 5811 5809 5809 5809 5808 5808 5808 5809 5810 5812 5814 5816 5816 5816 5817 5819 5821 5823 5825 5828 5831 5833 5834 5836 5841 5846 5847 5847 5848 5849 5852 5855 5857 5859 5862 5866 5869 5872 5876 5876 5878 5882 5883 5885 5887 5888 5890 5892 5893 5895 5897 5897 5896 5897 5897 5898 5900 5901 5903 5906 5907 5907 5908 5909 5911 5912 5913 5914 5916 5919 5920
5824 5822 5821 5819 5817 5816 5815 5813 5812 5811 5810 5810 5809 5809 5810 5812 5812 5811 5810 5809 5808 5807 5807 5808 5809 5810 5812 5815 5816 5815 5815 5817 5819 5821 5822 5824 5828 5830 5831 5832 5834 5839 5843 5845 5848 5849 5850 5852 5853 5855 5857 5860 5864 5868 5871 5873 5874 5876 5880 5881 5883 5885 5887 5889 5891 5892 5894 5895 5895 5895 5897 5897 5896 5899 5900 5901 5904 5905 5906 5908 5908 5909 5910 5910 5911 5914 5917 5919
5824 5822 5821 5819 5818 5817 5815 5814 5813 5812 5811 5811 5810 5811 5812 5812 5811 5811 5811 5809 5808 5809 5808 5809 5809 5811 5813 5814 5813 5813 5815 5817 5818 5820 5822 5824 5827 5828 5829 5831 5834 5838 5841 5844 5848 5849 5851 5854 5852 5852 5855 5858 5862 5866 5867 5869 5872 5875 5877 5879 5882 5884 5885 5887 5889 5890 5891 5892 5893 5894 5895 5895 5895 5897 5898 5899 5901 5902 5904 5905 5907 5908 5908 5908 5910 5912 5915 5917
5823 5822 5821 5819 5818 5817 5816 5815 5814 5813 5812 5811 5812 5813 5813 5811 5810 5810 5809 5808 5809 5809 5810 5810 5811 5815 5817 5815 5812 5814 5816 5817 5818 5820 5823 5825 5826 5827 5828 5829 5832 5835 5838 5841 5845 5847 5851 5854 5849 5848 5852 5854 5859 5864 5865 5868 5873 5875 5875 5877 5880 5882 5884 5886 5887 5888 5890 5891 5892 5893 5894 5893 5895 5896 5897 5897 5898 5899 5901 5902 5905 5907 5907 5908 5910 5912 5914 5916
5823 5822 5820 5819 5818 5818 5817 5816 5815 5814 5813 5813 5813 5813 5812 5811 5810 5809 5809 5808 5809 5809 5811 5813 5814 5816 5819 5816 5814 5814 5816 5817 5819 5820 5822 5824 5824 5825 5826 5826 5827 5829 5832 5836 5840 5843 5849 5851 5847 5847 5850 5853 5857 5862 5862 5867 5871 5872 5875 5878 5880 5881 5882 5884 5885 5886 5888 5890 5891 5893 5893 5893 5894 5896 5896 5897 5897 5898 5900 5900 5902 5905 5907 5908 5909 5911 5913 5915
5822 5821 5820 5819 5818 5818 5817 5817 5816 5815 5814 5814 5814 5813 5812 5811 5810 5809 5809 5808 5809 5810 5812 5816 5816 5816 5818 5819 5817 5816 5816 5818 5819 5820 5821 5822 5822 5822 5824 5825 5825 5827 5830 5834 5837 5840 5845 5848 5846 5846 5849 5851 5856 5859 5860 5864 5866 5868 5872 5874 5876 5880 5882 5881 5882 5885 5888 5889 5891 5892 5892 5893 5893 5894 5895 5895 5896 5897 5898 5899 5901 5903 5906 5908 5908 5909 5911 5913
5821 5821 5820 5819 5818 5818 5818 5817 5816 5815 5815 5815 5814 5813 5812 5811 5810 5809 5809 5808 5809 5810 5812 5814 5814 5815 5817 5818 5818 5817 5817 5817 5819 5820 5820 5821 5821 5820 5822 5824 5824 5826 5830 5833 5835 5839 5844 5847 5846 5845 5847 5849 5852 5855 5858 5862 5864 5865 5867 5868 5871 5876 5879 5880 5882 5885 5887 5888 5890 5891 5892 5892 5891 5892 5893 5893 5894 5896 5896 5898 5900 5901 5904 5906 5908 5908 5910 5912
5821 5820 5819 5819 5818 5818 5818 5818 5817 5816 5816 5815 5815 5813 5812 5811 5810 5809 5809 5808 5808 5809 5810 5811 5812 5814 5816 5815 5816 5817 5816 5816 5818 5819 5818 5820 5821 5820 5820 5822 5823 5825 5829 5831 5834 5837 5841 5845 5845 5844 5845 5847 5850 5853 5857 5860 5862 5863 5865 5868 5872 5875 5876 5878 5881 5883 5885 5887 5888 5890 5890 5889 5889 5891 5892 5892 5892 5894 5896 5896 5898 5901 5903 5904 5906 5907 5909 5910
5820 5819 5819 5818 5818 5818 5818 5817 5817 5816 5816 5816 5815 5814 5812 5811 5810 5809 5808 5808 5808 5808 5809 5809 5810 5813 5815 5814 5814 5815 5815 5815 5817 5817 5817 5819 5820 5818 5817 5819 5821 5824 5828 5831 5834 5835 5837 5841 5844 5845 5845 5846 5848 5852 5855 5858 5861 5862 5864 5868 5872 5873 5875 5877 5879 5881 5884 5886 5887 5889 5889 5887 5887 5889 5890 5891 5891 5893 5895 5894 5895 5899 5900 5900 5902 5905 5907 5909
5819 5818 5818 5818 5818 5818 5817 5817 5817 5816 5816 5816 5815 5814 5813 5811 5810 5809 5808 5808 5808 5808 5808 5808 5809 5810 5812 5812 5813 5814 5814 5815 5815 5816 5817 5818 5817 5816 5816 5818 5820 5823 5827 5831 5833 5832 5834 5838 5841 5844 5847 5847 5848 5850 5853 5856 5858 5859 5862 5865 5868 5871 5874 5876 5878 5881 5883 5885 5887 5889 5888 5885 5886 5888 5889 5889 5890 5892 5894 5894 5892 5894 5897 5899 5900 5901 5902 5904
5818 5818 5817 5817 5817 5817 5817 5816 5816 5816 5816 5815 5815 5814 5813 5812 5811 5810 5809 5808 5808 5808 5807 5807 5807 5808 5809 5810 5812 5814 5813 5813 5814 5815 5816 5815 5814 5814 5815 5816 5819 5821 5825 5828 5828 5829 5832 5836 5838 5841 5845 5847 5847 5848 5849 5851 5853 5855 5860 5862 5864 5868 5871 5874 5877 5879 5881 5885 5887 5887 5886 5885 5886 5887 5887 5888 5889 5890 5892 5893 5891 5891 5894 5899 5900 5899 5900 5901
5818 5817 5817 5817 5816 5816 5816 5816 5816 5816 5816 5815 5815 5814 5813 5812 5811 5810 5809 5808 5808 5807 5807 5806 5806 5807 5807 5807 5810 5811 5811 5811 5812 5813 5814 5814 5813 5814 5815 5816 5817 5819 5821 5823 5824 5827 5830 5833 5835 5838 5842 5845 5846 5845 5845 5848 5850 5854 5858 5859 5862 5866 5870 5873 5875 5875 5878 5883 5885 5887 5887 5884 5884 5886 5887 5887 5888 5889 5890 5892 5892 5890 5892 5896 5899 5899 5899 5900
5817 5816 5816 5816 5815 5815 5815 5815 5815 5815 5815 5815 5814 5813 5812 5812 5811 5810 5809 5808 5808 5807 5807 5806 5806 5806 5807 5807 5808 5809 5809 5811 5811 5812 5812 5812 5812 5813 5814 5815 5816 5817 5819 5820 5822 5825 5827 5829 5832 5835 5838 5841 5842 5842 5844 5847 5849 5851 5855 5858 5862 5865 5867 5869 5872 5874 5876 5877 5880 5884 5884 5881 5881 5883 5885 5886 5887 5888 5889 5890 5891 5891 5891 5894 5896 5897 5898 5900
5816 5815 5815 5814 5814 5814 5814 5814 5814 5814 5814 5814 5814 5813 5812 5811 5810 5809 5809 5808 5807 5807 5806 5806 5806 5806 5806 5807 5807 5808 5808 5810 5810 5810 5810 5811 5811 5812 5813 5814 5815 5816 5818 5819 5821 5823 5825 5827 5830 5832 5834 5836 5837 5838 5841 5845 5848 5851 5854 5858 5859 5859 5861 5864 5867 5871 5873 5873 5876 5879 5878 5877 5878 5881 5883 5884 5884 5886 5887 5888 5889 5890 5891 5893 5894 5896 5898 5900
5816 5814 5814 5813 5813 5813 5813 5812 5812 5813 5813 5813 5813 5813 5812 5811 5810 5809 5809 5808 5807 5807 5806 5806 5806 5806 5806 5806 5807 5807 5807 5808 5809 5809 5809 5810 5810 5811 5812 5813 5815 5816 5817 5818 5820 5821 5823 5826 5828 5830 5832 5833 5835 5837 5840 5842 5846 5850 5854 5855 5854 5854 5858 5860 5862 5866 5869 5871 5874 5875 5874 5875 5877 5877 5879 5882 5882 5883 5885 5886 5887 5889 5890 5892 5893 5894 5897 5899
5814 5813 5813 5812 5812 5812 5811 5811 5811 5811 5812 5812 5812 5812 5811 5811 5810 5809 5808 5808 5807 5806 5806 5805 5805 5805 5805 5806 5806 5806 5806 5807 5807 5808 5809 5809 5810 5811 5811 5812 5813 5814 5816 5818 5818 5819 5822 5823 5825 5828 5831 5832 5834 5836 5838 5840 5842 5845 5848 5849 5849 5852 5855 5857 5860 5864 5866 5866 5869 5871 5871 5873 5874 5873 5876 5879 5880 5880 5881 5883 5885 5887 5888 5890 5891 5892 5893 5895
5813 5812 5811 5811 5811 5810 5810 5810 5810 5810 5810 5810 5810 5810 5810 5810 5809 5809 5808 5807 5806 5806 5805 5805 5805 5805 5805 5805 5805 5805 5805 5806 5806 5807 5808 5809 5809 5810 5810 5810 5811 5813 5815 5816 5816 5818 5821 5821 5823 5826 5828 5831 5833 5834 5836 5838 5839 5840 5842 5844 5845 5848 5851 5853 5857 5861 5860 5860 5864 5867 5868 5869 5870 5870 5872 5875 5876 5877 5879 5881 5883 5885 5886 5888 5889 5890 5891 5892
5811 5811 5810 5810 5810 5809 5809 5809 5809 5809 5809 5809 5809 5809 5809 5809 5809 5808 5807 5807 5806 5806 5805 5805 5805 5805 5805 5805 5805 5805 5805 5805 5806 5806 5807 5807 5808 5808 5809 5809 5810 5811 5812 5813 5814 5817 5819 5820 5822 5824 5826 5829 5832 5834 5836 5837 5837 5838 5839 5840 5843 5845 5847 5849 5852 5854 5855 5857 5862 5864 5864 5865 5867 5868 5869 5872 5873 5874 5876 5878 5880 5882 5884 5885 5887 5889 5890 5891
5809 5809 5809 5809 5808 5807 5807 5807 5808 5808 5808 5807 5808 5808 5808 5808 5808 5807 5807 5806 5806 5805 5805 5804 5804 5804 5804 5804 5805 5804 5804 5805 5805 5805 5806 5806 5805 5806 5807 5808 5809 5810 5810 5811 5813 5815 5817 5819 5821 5823 5825 5827 5829 5832 5833 5835 5836 5837 5836 5837 5839 5841 5843 5846 5847 5849 5852 5855 5858 5860 5861 5862 5864 5865 5865 5868 5870 5872 5873 5875 5877 5879 5881 5882 5884 5887 5888 5890
5808 5807 5807 5807 5806 5806 5806 5806 5806 5806 5806 5806 5806 5806 5806 5806 5806 5806 5806 5806 5805 5805 5805 5804 5804 5804 5804 5804 5804 5804 5804 5804 5804 5804 5804 5804 5804 5805 5806 5806 5807 5808 5809 5810 5811 5813 5814 5817 5819 5820 5822 5824 5825 5827 5828 5830 5835 5835 5832 5833 5836 5837 5840 5841 5842 5845 5849 5851 5854 5856 5857 5859 5861 5862 5862 5864 5866 5868 5870 5871 5874 5876 5878 5879 5882 5884 5886 5888